Tracking 20942 objects as of 10-Jul-2020
HD Live streaming from Space Station
objects crossing your sky now

AMC-7 (GE-7)

Track AMC-7 (GE-7) now!
AMC-7 (GE-7) is classified as:


NORAD ID: 26495
Int'l Code: 2000-054B
Perigee: 36,095.3 km
Apogee: 36,137.7 km
Inclination: 1.4 °
Period: 1,452.6 minutes
Semi major axis: 42487 km
RCS: 22.9975 m2 (large)
Launch date: September 14, 2000
Source: SOCIETE EUROPEENNE DES SATELLITES (SES)
Launch site: FRENCH GUIANA (FRGUI)

Cable programming; 24 C-band; CONUS, Alaska, Hawaii, Caribbean
aabbcc
Your satellite tracking list
Your tracking list is empty




NASA's NSSDC Master Catalog

Two Line Element Set (TLE):
1 26495U 00054B   20191.57386522 -.00000022 +00000-0 +00000-0 0  9991
2 26495 001.4209 095.3456 0004990 013.2447 292.4566 00.99131377072462
Source of the keplerian elements: AFSPC